www.pogodaiklimat.ru

Погода и климат >> Архив погоды >> Узбекистан >> Хива


ПОГОДА в Хиве

  • Прогноз погоды в Хиве
  • Монитор погоды в Хиве

АРХИВ ПОГОДЫ в Хиве

Время (UTC), дата Ветер
(напр.,м/с)
 
Видим.   Явления Облачность Т
(С)
Тd
(С)
f
(%)
Тe
(С)
Тes
(С)
Комфортность P
(гПа)
Po
(гПа)
Тmin
(С)
Tmax
(С)
R
(мм)
R24
(мм)
S
(см)
21 10.06 штиль 0 н/о ясно +18.6 +13.7 73 +19 +19 1019.0 1007.4
00 11.06 штиль 0 н/о ясно +17.1 +12.4 74 +17 +17 1018.5 1006.9
03 11.06 штиль 0 10 км ясно +22.5 +11.4 49 +25 +31 комфорт 1019.3 1007.9
06 11.06 З 1 10 км ясно +28.5 +5.1 23 +27 +47 жарко 1019.5 1008.3
09 11.06 С 1 10 км ясно +30.0 +3.4 18 +28 +50 жарко 1018.0 1006.9
12 11.06 С 1 10 км ясно +31.0 +5.1 20 +29 +39 жарко 1016.0 1005.0
15 11.06 штиль 0 10 км ясно +30.3 +8.0 25 +29 +30 жарко 1016.1 1005.0 +32.0
18 11.06 штиль 0 н/о ясно +24.0 +12.5 49 +26 +26 жарко 1016.3 1005.0 +32.0
21 11.06 В 1 н/о ясно +20.8 +13.5 63 +24 +24 комфорт 1015.9 1004.5
00 12.06 С 1 н/о ясно +18.7 +12.2 66 +21 +21 комфорт 1015.5 1004.0
03 12.06 С 1 10 км ясно +23.3 +11.4 47 +26 +31 жарко 1015.9 1004.6
06 12.06 С 1 10 км ясно +31.0 +7.7 23 +30 +49 жарко 1014.3 1003.3
09 12.06 В 1 10 км ясно +33.6 +15.8 34 +36 +58 опасность
солнечного
удара
1012.9 1002.0
12 12.06 В 1 10 км ясно +34.0 +10.2 23 +33 +43 жарко 1011.6 1000.7
15 12.06 В 1 10 км ясно +32.8 +11.9 28 +33 +33 жарко 1010.3 999.4 +35.0
18 12.06 С 1 н/о ясно +26.2 +14.1 47 +28 +28 жарко 1010.6 999.4 +35.0
21 12.06 С 1 н/о ясно +23.6 +12.4 49 +25 +25 комфорт 1010.0 998.8
00 13.06 С 1 н/о ясно +21.6 +12.8 57 +24 +24 комфорт 1009.3 998.0
03 13.06 штиль 0 10 км ясно +25.6 +12.9 45 +27 +33 жарко 1009.7 998.5
06 13.06 В 1 10 км ясно +33.4 +21.0 48 +41 +60 опасность
перегрева
1009.2 998.3
12 13.06 С 1 10 км 4/0
[As op]
+36.0 +6.8 17 +34 +40 очень
жарко
1006.4 995.6
15 13.06 С 1 10 км 8/0
[Ci fib]
+34.0 +9.7 23 +33 +33 жарко 1005.7 994.8 +37.0
18 13.06 С 1 н/о ясно +27.4 +11.8 38 +29 +29 жарко 1005.7 994.6 +27.0
21 13.06 С 1 н/о 6/6 600 м
[St]
+23.8 +13.9 54 +26 +26 жарко 1005.5 994.3
00 14.06 штиль 0 н/о 8/8 600 м
[Sc]
+21.4 +18.6 84 +26 +26 душно 1005.5 994.2
03 14.06 С 1 10 км 6/0
[Ci sp]
+29.8 +13.4 37 +31 +35 жарко 1007.2 995.8
06 14.06 С 1 10 км 6/0
[Ci sp]
+33.4 +8.2 21 +32 +46 жарко 1006.4 995.6
09 14.06 С 1 10 км 8/8 600 м
[Cu hum Cs]
+36.7 +5.9 15 +34 +39 очень
жарко
1005.4 994.7
12 14.06 С 1 10 км 6/6 600 м
[Cu med, cong]
+37.4 +5.1 14 +35 +38 очень
жарко
1004.8 994.1
15 14.06 С 1 10 км 8/8 600 м
[Cu med, cong]
+33.6 +7.1 19 +32 +32 жарко 1004.6 993.8 +38.2
18 14.06 н/о н/о +28.8 +11.8 35 +30 +30 жарко 1005.9 994.9 +38.2
21 14.06 н/о н/о +25.0 +13.6 49 +27 +27 жарко 1006.3 995.2
00 15.06 СЗ 1 н/о ясно +21.8 +12.7 56 +24 +24 комфорт 1007.2 995.9
03 15.06 С 1 10 км ясно +22.4 +13.2 56 +25 +31 комфорт 1008.0 996.7
06 15.06 С 1 10 км ясно +29.6 +12.5 35 +31 +50 жарко 1009.7 998.7
09 15.06 С 2 10 км ясно +32.4 +6.7 20 +31 +50 жарко 1008.9 998.0
12 15.06 С 3 10 км ясно +33.0 +3.8 16 +30 +37 жарко 1008.9 998.0
15 15.06 С 2 10 км ясно +30.6 +12.8 34 +32 +32 жарко 1009.0 998.0 +33.5
18 15.06 С 1 н/о ясно +25.0 +10.7 41 +26 +26 жарко 1009.7 998.5 +33.5
00 16.06 СЗ 1 н/о ясно +19.0 +12.8 67 +21 +21 комфорт 1011.4 1000.0
03 16.06 С 1 10 км ясно +21.0 +13.7 63 +25 +30 комфорт 1012.9 1001.5
06 16.06 В 1 10 км ясно +27.6 +5.1 24 +27 +46 жарко 1012.4 1001.3
09 16.06 В 1 10 км ясно +30.2 +15.7 42 +33 +55 опасность
солнечного
удара
1011.6 1000.6
12 16.06 В 1 10 км ясно +31.4 +13.5 34 +33 +42 жарко 1010.3 999.4
15 16.06 СВ 1 10 км ясно +31.0 +8.9 25 +30 +30 жарко 1009.5 998.6 +31.8
18 16.06 СВ 1 н/о ясно +25.2 +14.9 53 +28 +28 жарко 1010.0 998.8 +31.8
21 16.06 В 1 н/о ясно +23.2 +11.0 46 +25 +25 комфорт 1009.2 998.0

 

Местоположение метеостанции Хива (Хорезмская область, Узбекистан): широта 41.40 долгота 60.38 высота над уровнем моря 95 м.

В архиве по умолчанию представлена погода в Хиве за последнюю неделю. Архивные данные за месяц целиком и за предыдущие месяцы, начиная с января 2011 года, Вы можете получить, выбрав интересующий диапазон дат из раскрывающегося списка и нажав кнопку "Ввод!".


*Определитесь, кто Вы:
робот инопланетянин человек

Внимание! Время в таблицах - всемирное. Для получения местного времени необходимо прибавить поправку, которая равна 5 ч.

Смотрите также архив погоды в соседних городах и на ближайших метеорологических станциях:

Погода в Ургенче (Хорезмская область, Узбекистан) (25 км)
Погода в Гурлене (Хорезмская область, Узбекистан) (50 км)
Погода в Дашогузе (Дашогузский велаят, Туркменистан) (61 км)
Погода в Тюя-Муюне (Лебапский велаят, Туркменистан) (88 км)
Погода в Тахиаташе (Каракалпакстан, Узбекистан) (129 км)
Погода в Нукусе (Каракалпакстан, Узбекистан) (133 км)
Погода в Тахтакупыре (Каракалпакстан, Узбекистан) (136 км)
Погода в Шах-Сенеме (Дашогузский велаят, Туркменистан) (140 км)
Погода в Кенеургенче (Дашогузский велаят, Туркменистан) (144 км)
Погода в Бузаубае (Хорезмская область, Узбекистан) (178 км)

Пояснения к столбцам:

Ветер - указаны скорость ветра в м/с - средняя за 10 мин, порывы в срок и между сроками (в фигурных скобках) и направление, откуда дует ветер: С - северный, СВ - северо-восточный, В - восточный, ЮВ - юго-восточный, Ю - южный, ЮЗ - юго-западный, З - западный, СЗ - северо-западный.
Видимость - горизонтальная дальность видимости в метрах или километрах. При видимости от 1 до 10 км при отсутствии осадков обычно наблюдается дымка, при ухудшении видимости до 1 км и менее - туман. В сухую погоду видимость может ухудшаться дымом, пылью или мглою.
Явления - указаны атмосферные явления, наблюдавшиеся в срок или в последний час перед сроком; фигурными скобками обозначены явления, наблюдавшиеся между сроками (за 1-3 часа до срока); квадратными скобками обозначены град или гололедные отложения с указанием их диаметра в мм.
Облачность - указаны через наклонную черту общая и нижняя облачность в баллах и высота нижней границы облаков в метрах; квадратными скобками обозначены формы облаков: Ci - перистые, Cs - перисто-слоистые, Cc - перисто-кучевые, Ac - высококучевые, As - высокослоистые, Sc - слоисто-кучевые, Ns - слоисто-дождевые, Cu - кучевые, Cb - кучево-дождевые. Подробнее классификацию облаков см. в Атласе облаков (PDF).
T - Температура воздуха - температура, измеренная на высоте 2 м над землей.
Td - Температура точки росы - температура, при понижении до которой содержащийся в воздухе водяной пар достигнет насыщения.
f - Относительная влажность воздуха - влажноcть воздуха, измеренная на высоте 2 м над землей.
Te - Эффективная температура - температура, которую ощущает одетый по сезону человек в тени. Характеристика душности погоды. При расчете учитывается влияние влажности воздуха и скорости ветра на теплоощущения человека.
Tes - Эффективная температура на солнце - температура, которую ощущает человек, с поправкой на солнечный нагрев. Характеристика знойности погоды. Зависит от высоты солнца над горизонтом, облачности и скорости ветра. Ночью, в пасмурную погоду, а также при ветре 12 м/с и более поправка равна нулю.
P - Атмосферное давление - приведенное к уровню моря атмосферное давление.
Po - Атмосферное давление - измеренное на уровне метеостанции атмосферное давление.
Tmin - Минимальная температура - минимум температуры воздуха на высоте 2 м над землей.
Tmax - Максимальная температура - максимум температуры воздуха на высоте 2 м над землей.
R - Количество осадков - Количество выпавших осадков за период времени, мм. При наведении курсора мыши на число - период времени, за который выпало указанное количество осадков.
R24 - Количество осадков - Количество выпавших осадков за 24 часа, мм.
S - Снежный покров - Высота снежного покрова, см. При наведении курсора мыши на число - состояние снежного покрова и степень покрытия местности в баллах.